Regional Weather Roundup
Issued by NWS

Home | Current Version | Previous Version | Text Only | Print | Product List | Glossary On
Versions: 1 2 3 4 5 6 7 8 9 10 11 12 13 14 15 16 17 18 19 20 21 22 23 24 25 26 27 28 29 30 31 32 33 34 35 36 37 38 39 40 41 42 43 44 45 46 47 48 49 50
000
ASUS44 KMEG 010510
RWRTN
TENNESSEE HOURLY STATE WEATHER ROUNDUP
NATIONAL WEATHER SERVICE MEMPHIS TN
1200 AM CDT WED JUN 01 2016

TNZ002-004-019-021-049-052-054-088>092-010600-
WEST TENNESSEE

CITY           SKY/WX    TMP DP  RH WIND       PRES   REMARKS
MEMPHIS INTL   PTCLDY    76  68  76 CALM      29.94R
NWS MEMPHIS      N/A     71 N/A N/A MISG        N/A
JACKSON        PTCLDY    68  66  93 CALM      29.94S
DYERSBURG      PTCLDY    72  66  83 CALM      29.94R
UNION CITY     CLEAR     72  70  94 CALM      29.93R
PARIS          CLEAR     66  63  88 CALM      29.94F
LEXINGTON      CLEAR     66  66 100 CALM      29.93F
$$

TNZ008-025-027-028-033-062-065-066-010600-
NORTH MIDDLE TENNESSEE

CITY           SKY/WX    TMP DP  RH WIND       PRES   REMARKS
NASHVILLE      CLEAR     76  61  59 CALM      29.95F
CLARKSVILLE    PTCLDY    70  65  84 E3        29.93F
SMYRNA         CLOUDY    70  65  84 CALM      29.96F
COOKEVILLE     CLEAR     64  64 100 CALM      29.97S
CROSSVILLE     CLEAR     66  63  90 CALM      30.03S
$$

TNZ061-075-076-078-094-096-097-010600-
SOUTH MIDDLE TENNESSEE

CITY           SKY/WX    TMP DP  RH WIND       PRES   REMARKS
FAYETTEVILLE   CLEAR     73  66  78 CALM      29.96F
TULLAHOMA      CLEAR     72  66  83 CALM      29.98F
WINCHESTER     CLEAR     70  63  78 CALM      29.98S
MCMINNVILLE    CLEAR     68  66  94 CALM      29.98S
COLUMBIA       CLEAR    N/A N/A N/A CALM      29.94F
SHELBYVILLE    CLEAR     72  64  78 E3        29.97F
$$

TNZ017-018-042-046-047-010600-
NORTHEAST TENNESSEE

CITY           SKY/WX    TMP DP  RH WIND       PRES   REMARKS
TRI CITIES     CLEAR     65  61  87 CALM      30.02S
$$

TNZ012-013-036-069-073-074-010600-
CENTRAL EAST TENNESSEE

CITY           SKY/WX    TMP DP  RH WIND       PRES   REMARKS
KNOXVILLE      NOT AVBL
OAK RIDGE      CLEAR     70  63  78 CALM      29.99R
GATLINBURG     CLEAR     64  63  94 CALM      29.98R
$$

TNZ083-085-099-010600-
SOUTHEAST TENNESSEE

CITY           SKY/WX    TMP DP  RH WIND       PRES   REMARKS
CHATTANOOGA    CLEAR     74  63  68 CALM      29.96S
$$

SKY/WX REPORTED AS FAIR MEANS FEW OR NO CLOUDS BELOW
12 THOUSAND FEET.





USA.gov is the U.S. government's official web portal to all federal, state and local government web resources and services.